Regional Weather Roundup
Issued by NWS

Home | Current Version | Previous Version | Text Only | Print | Product List | Glossary On
Versions: 1 2 3 4 5 6 7 8 9 10 11 12 13 14 15 16 17 18 19 20 21 22 23 24 25 26 27 28 29 30 31 32 33 34 35 36 37 38 39 40 41 42 43 44 45 46 47 48 49 50
003
ASUS44 KFWD 142315
RWRTX
NORTH TEXAS HOURLY WEATHER ROUNDUP
NATIONAL WEATHER SERVICE FORT WORTH TX
500 PM CST SUN FEB 14 2016

NOTE: "FAIR" INDICATES FEW OR NO CLOUDS BELOW 12,000 FEET WITH NO
SIGNIFICANT WEATHER AND/OR OBSTRUCTIONS TO VISIBILITY.

TXZ118-119-150000-
DALLAS/FORT WORTH METROPLEX

CITY           SKY/WX    TMP DP  RH WIND       PRES   REMARKS
DFW AIRPORT    PTSUNNY   67  52  58 SE5       29.82F
DALLAS LOVE    CLOUDY    66  54  65 S6        29.83F
FTW MEACHAM    CLOUDY    69  51  52 SW5       29.82F
DAL-EXECUTIVE  CLOUDY    67  54  63 S5        29.83F
FTW-ALLIANCE   PTSUNNY   67  50  54 CALM      29.82F
FTW-NAS-JRB    CLOUDY    69  50  50 S5        29.82F
FTW-SPINKS     PTSUNNY   68  54  60 S6        29.84F
ARLINGTON      CLOUDY    70  53  54 S7        29.83F
GRAND PRAIRIE  PTSUNNY   66  54  63 S5        29.84F
MESQUITE       CLOUDY    66  55  68 S10       29.84F
LANCASTER      CLOUDY    67  53  61 S12       29.85F
$$

TXZ091>094-102>105-117-120-121-131>134-150000-
NORTH CENTRAL TEXAS

CITY           SKY/WX    TMP DP  RH WIND       PRES   REMARKS
SHRMAN/DENISON PTSUNNY   65  52  61 S7        29.85S
GAINESVILLE    CLOUDY    64  51  64 SE9       29.85S
BOWIE          CLOUDY    64  45  50 S9        29.83S
BRIDGEPORT     MOSUNNY   65  48  53 SW7       29.85S
DECATUR        MOSUNNY   65  47  52 SW3       29.83S
DENTON         MOSUNNY   66  51  58 S6        29.83S
MCKINNEY       CLOUDY    64  54  69 SE7       29.84F
GREENVILLE     CLOUDY    63  54  72 SE3       29.86F
ROCKWALL       CLOUDY    65  55  69 SW9G20    29.84S
TERRELL        CLOUDY    65  55  70 S5        29.85F
WAXAHACHIE     CLOUDY    66  56  69 S9        29.85S
CLEBURNE       CLOUDY    68  57  68 SE7       29.84S
GRANBURY       MOSUNNY   71  51  50 CALM      29.83S
$$

TXZ083>090-098>101-113>116-127>130-139>142-154-155-150000-
WESTERN NORTH TEXAS

CITY           SKY/WX    TMP DP  RH WIND       PRES   REMARKS
WICHITA FALLS  MOSUNNY   58  45  62 N13       29.85R
WF-KICKAPOO    CLOUDY    61  46  59 N12G18    29.86R
VERNON         CLOUDY    57  36  46 NE7       29.87F
ABILENE        SUNNY     61  40  45 NW5       29.85F
ABILENE-DYESS  SUNNY     61  41  47 VRB5      29.84F
BRECKENRIDGE   SUNNY     62  41  45 CALM      29.84S
GRAHAM         MOSUNNY   62  47  56 CALM      29.83S
MINERAL WELLS  SUNNY     65  44  46 NW5       29.82S
STEPHENVILLE   SUNNY     68  50  51 CALM      29.85S
COMANCHE       SUNNY     70  52  52 CALM      29.82F
BROWNWOOD      SUNNY     72  48  43 SW9       29.82F
COLEMAN        SUNNY     69  47  45 W6        29.83F
$$

TXZ143>147-156>162-174-175-150000-
CENTRAL TEXAS

CITY           SKY/WX    TMP DP  RH WIND       PRES   REMARKS
WACO           PTSUNNY   70  52  52 S15       29.83F
WACO-MCGREGOR  CLOUDY    70  55  59 S13       29.84F
HILLSBORO      CLOUDY    68  53  58 S17       29.84F
CORSICANA      CLOUDY    70  55  59 SW9       29.86S
MEXIA          CLOUDY    70  54  56 S12G18    29.84S
HEARNE         MOSUNNY   73  53  48 S14       29.86S
CAMERON        CLOUDY    73  53  49 S15       29.84S
TEMPLE         CLOUDY    71  54  54 S14       29.84F
KILLEEN        CLOUDY    69  53  57 S10       29.84S
KILLEEN-SKYLRK MOSUNNY   70  54  56 S14       29.84F
FORT HOOD      CLOUDY    70  53  56 SW12      29.82S
GATESVILLE     PTSUNNY   72  54  53 S10       29.85F
HAMILTON       CLOUDY    71  54  54 S9        29.84S
LAMPASAS       CLOUDY    71  56  60 S8        29.84S
$$

TXZ095>097-106>112-122>126-135>138-148>153-164>167-150000-
EAST TEXAS

CITY           SKY/WX    TMP DP  RH WIND       PRES   REMARKS
PARIS          CLOUDY    59  46  63 SE7       29.88R
SULPHUR SPRNGS CLOUDY    58  53  81 CALM      29.88F
MOUNT PLEASANT MOSUNNY   60  52  72 NE5       29.89S
GILMER         CLOUDY    66  52  59 CALM      29.86S
MINEOLA        CLOUDY    68  54  60 CALM      29.87S
TYLER          CLOUDY    69  52  54 S5        29.86S
LONGVIEW       CLOUDY    69  52  54 S8        29.86F
MARSHALL       CLOUDY    65  56  71 CALM      29.90F
ATHENS         CLOUDY    68  52  56 SW3       29.84S
PALESTINE      CLOUDY    73  52  48 S10       29.86S
JACKSONVILLE   CLOUDY    70  52  52 S8        29.88S
HENDERSON      CLOUDY    70  52  53 S5        29.88S
CENTER         FAIR      72  50  45 S9        29.87F
NACOGDOCHES    CLOUDY    70  48  46 S13G21    29.86F
LUFKIN         CLOUDY    71  51  49 S12       29.88F
$$

SUPPLEMENTAL OBSERVATIONS (CENTRAL)

CITY           SKY/WX    TMP DP  RH WIND       PRES   REMARKS
LAKE TEXOMA      N/A     64  50  59 SW9         N/A
PAT MAYSE LAKE   N/A     61  54  77 SE5         N/A
ATHENS           N/A     70  52  52 SW3G13      N/A
MCGREGOR         N/A     70  54  56 SW6G16      N/A
TEMPLE           N/A     72  52  49 S13G22      N/A
$$

SUPPLEMENTAL OBSERVATIONS (WEST)

CITY           SKY/WX    TMP DP  RH WIND       PRES   REMARKS
MILLERS CREEK    N/A     61  43  51 N5          N/A
POSSUM KINGDOM   N/A     63  43  48 W5          N/A
GRANBURY         N/A     72  50  46 S5          N/A
HAMBY            N/A     63  41  45 NW3         N/A
IVIE RESERVOIR   N/A     72  46  40 NW3         N/A
COLORADO BEND    N/A     70  50  49 SW9         N/A
$$

SUPPLEMENTAL OBSERVATIONS (EAST)

CITY           SKY/WX    TMP DP  RH WIND       PRES   REMARKS
CLARKSVILLE      N/A     57  50  77 SE6         N/A
TEXARKANA        N/A     59  50  72 CALM        N/A
LINDEN           N/A     63  54  72 E2          N/A
CADDO LAKE       N/A     66  54  63 SE2         N/A
GILMER           N/A     66  50  55 CALM        N/A
HENDERSON        N/A     70  52  52 S8G17       N/A
LUFKIN           N/A     72  50  46 MISG        N/A
N SABINE NF      N/A     66  57  72 MISG        N/A
S SABINE NF      N/A     68  55  64 SE3         N/A
$$

SUPPLEMENTAL OBSERVATIONS ARE A COLLECTION OF AUTOMATED INSTRUMENTS
THAT ARE MAINTAINED BY A VARIETY OF FEDERAL AND STATE AGENCIES.
CERTAIN ELEMENTS...SUCH AS HUMIDITY VALUES AND SUSTAINED WIND
SPEEDS...MAY BE APPROXIMATED.





USA.gov is the U.S. government's official web portal to all federal, state and local government web resources and services.